Temp
-9 -9 -10 -10 -11 -11 -11 -11 -11 -11 -11 -11 -10 -10 -9 -9 -10 -10 -10 -10 -9 -9 -9 -9 -9 -9 -8 -8 -8 -7 -7 -7 -7 -7 -7 -7 -7 -7 -6 -6 -6 -6 -6
-9 -10 -10 -10 -10 -10 -11 -11 -11 -11 -11 -11 -10 -10 -10 -10 -10 -10 -10 -10 -10 -10 -9 -9 -9 -9 -8 -8 -8 -7 -7 -7 -7 -7 -7 -7 -7 -6 -6 -6 -7 -6 -6
-10 -10 -10 -10 -10 -10 -11 -11 -11 -11 -11 -11 -11 -11 -11 -10 -10 -10 -10 -10 -10 -10 -10 -10 -9 -9 -9 -8 -8 -8 -7 -8 -8 -7 -8 -7 -7 -7 -6 -6 -7 -7 -7
-10 -10 -10 -10 -11 -11 -11 -11 -11 -11 -11 -11 -11 -11 -11 -11 -11 -11 -11 -10 -10 -10 -10 -10 -10 -10 -9 -9 -8 -8 -8 -8 -8 -8 -7 -7 -6 -7 -7 -7 -7 -7 -7
-10 -10 -10 -11 -11 -11 -12 -12 -12 -12 -12 -12 -11 -11 -11 -11 -11 -11 -11 -11 -10 -11 -10 -10 -10 -10 -10 -10 -8 -8 -8 -8 -8 -8 -8 -7 -6 -7 -7 -7 -6 -6 -7
-10 -11 -11 -11 -11 -12 -12 -12 -12 -12 -12 -12 -11 -11 -11 -11 -11 -11 -11 -11 -10 -11 -11 -10 -10 -10 -10 -10 -9 -8 -8 -9 -9 -8 -8 -7 -7 -7 -7 -7 -7 -7 -8
-10 -11 -11 -11 -12 -12 -12 -12 -12 -12 -12 -11 -11 -12 -12 -11 -11 -11 -11 -11 -11 -11 -11 -11 -11 -11 -10 -10 -10 -9 -8 -9 -10 -8 -8 -8 -7 -7 -7 -7 -7 -7 -8
-11 -11 -12 -12 -12 -12 -12 -12 -12 -12 -12 -12 -12 -12 -12 -12 -11 -11 -11 -11 -11 -11 -11 -11 -11 -11 -11 -10 -10 -10 -9 -9 -9 -9 -8 -8 -8 -8 -7 -8 -7 -7 -7
-11 -12 -12 -12 -12 -12 -12 -12 -12 -12 -12 -12 -12 -12 -12 -12 -12 -12 -12 -11 -11 -11 -11 -11 -12 -11 -11 -11 -10 -10 -10 -10 -9 -8 -8 -8 -8 -8 -8 -7 -7 -7 -7
-11 -11 -12 -12 -12 -12 -13 -13 -13 -13 -13 -13 -13 -13 -13 -13 -12 -12 -12 -12 -11 -11 -12 -12 -12 -12 -12 -11 -11 -10 -11 -10 -10 -9 -9 -8 -8 -8 -8 -7 -8 -8 -8
-11 -12 -12 -12 -13 -13 -13 -13 -13 -13 -13 -13 -13 -13 -13 -13 -13 -13 -13 -13 -12 -12 -12 -12 -12 -12 -12 -11 -11 -11 -11 -11 -10 -9 -9 -8 -8 -8 -8 -8 -8 -8 -8
-12 -12 -12 -13 -13 -13 -13 -13 -13 -13 -14 -14 -14 -14 -14 -14 -14 -14 -14 -14 -14 -13 -13 -13 -12 -12 -12 -11 -11 -11 -11 -11 -11 -9 -9 -8 -9 -8 -8 -8 -8 -8 -8
-12 -12 -12 -13 -13 -13 -13 -13 -13 -14 -14 -15 -14 -14 -14 -15 -15 -15 -15 -15 -15 -14 -13 -13 -13 -12 -12 -12 -11 -10 -11 -11 -11 -9 -9 -9 -9 -8 -8 -8 -8 -8 -8
-12 -12 -13 -13 -13 -13 -13 -14 -14 -14 -15 -15 -15 -15 -15 -14 -15 -15 -15 -15 -15 -14 -13 -13 -13 -13 -13 -12 -12 -11 -12 -11 -12 -10 -9 -9 -8 -9 -9 -9 -8 -8 -9
-12 -13 -13 -13 -13 -14 -14 -14 -14 -14 -16 -16 -16 -15 -15 -15 -15 -15 -15 -15 -15 -14 -14 -14 -14 -14 -13 -13 -12 -12 -12 -12 -11 -10 -9 -9 -9 -9 -8 -8 -9 -9 -9
-12 -13 -13 -13 -13 -13 -13 -13 -14 -15 -16 -16 -16 -16 -16 -16 -16 -15 -15 -15 -14 -14 -14 -14 -14 -14 -14 -13 -13 -12 -13 -12 -11 -10 -9 -9 -9 -9 -9 -9 -9 -9 -9
-13 -13 -13 -13 -13 -13 -13 -13 -14 -14 -15 -16 -16 -16 -16 -16 -16 -16 -15 -15 -15 -15 -14 -14 -14 -14 -14 -13 -13 -13 -13 -12 -11 -11 -10 -10 -9 -9 -9 -9 -8 -9 -10
-13 -13 -13 -13 -13 -13 -13 -14 -15 -15 -15 -16 -16 -16 -16 -16 -16 -16 -15 -15 -15 -15 -15 -14 -14 -14 -14 -14 -14 -14 -13 -12 -11 -10 -10 -10 -10 -9 -9 -9 -9 -9 -10
-13 -13 -13 -13 -13 -12 -13 -14 -14 -15 -15 -15 -15 -15 -15 -15 -15 -15 -15 -15 -15 -15 -14 -14 -15 -15 -15 -15 -14 -14 -13 -12 -11 -11 -10 -10 -10 -9 -9 -9 -9 -9 -10
-13 -13 -13 -13 -13 -12 -13 -13 -14 -14 -14 -14 -15 -15 -15 -15 -15 -15 -15 -15 -15 -14 -15 -15 -15 -15 -15 -14 -14 -13 -13 -12 -11 -11 -10 -10 -10 -10 -10 -10 -10 -10 -10
-13 -13 -13 -13 -13 -12 -12 -13 -13 -14 -14 -14 -15 -14 -15 -15 -14 -14 -15 -14 -15 -15 -15 -15 -15 -15 -14 -14 -13 -13 -12 -12 -11 -11 -10 -10 -10 -10 -10 -10 -10 -10 -10
-13 -13 -12 -13 -13 -13 -12 -13 -13 -13 -14 -14 -14 -14 -14 -14 -14 -14 -14 -14 -15 -15 -15 -15 -14 -14 -14 -13 -13 -13 -12 -12 -11 -11 -10 -11 -10 -10 -10 -11 -11 -11 -11
-13 -13 -13 -12 -12 -12 -12 -13 -14 -14 -13 -14 -14 -13 -14 -13 -14 -14 -14 -14 -14 -14 -15 -14 -14 -13 -13 -13 -13 -12 -12 -11 -11 -11 -11 -11 -11 -11 -11 -11 -11 -11 -11
-13 -13 -13 -12 -12 -12 -12 -13 -13 -13 -13 -13 -14 -13 -13 -14 -14 -14 -14 -14 -14 -14 -15 -14 -13 -13 -13 -13 -13 -13 -12 -11 -11 -11 -11 -11 -11 -11 -11 -11 -11 -12 -11
-13 -13 -13 -12 -12 -12 -12 -13 -13 -13 -13 -13 -13 -13 -13 -13 -14 -13 -14 -14 -14 -14 -13 -14 -12 -13 -12 -13 -13 -13 -12 -12 -11 -11 -11 -11 -12 -11 -11 -11 -12 -12 -12
-13 -13 -13 -12 -12 -12 -13 -13 -13 -13 -13 -13 -13 -13 -13 -13 -13 -13 -13 -14 -14 -14 -14 -13 -13 -13 -14 -13 -13 -13 -13 -12 -12 -11 -11 -11 -11 -11 -12 -12 -12 -12 -12
Height
5843 5838 5833 5830 5828 5823 5819 5816 5815 5814 5814 5814 5813 5811 5810 5809 5808 5809 5811 5813 5816 5821 5825 5829 5835 5842 5846 5851 5856 5860 5865 5870 5874 5879 5880 5883 5885 5887 5892 5893 5897 5900 5903
5838 5834 5831 5827 5824 5817 5813 5809 5807 5805 5804 5804 5803 5803 5802 5801 5799 5801 5802 5805 5809 5813 5817 5822 5827 5832 5838 5843 5850 5854 5860 5866 5870 5874 5877 5880 5883 5884 5887 5889 5894 5896 5901
5834 5830 5825 5821 5816 5810 5807 5803 5799 5796 5795 5794 5793 5792 5792 5792 5791 5791 5793 5796 5800 5805 5810 5815 5820 5825 5830 5836 5844 5849 5854 5860 5864 5870 5875 5879 5879 5880 5883 5885 5888 5891 5897
5829 5826 5822 5814 5809 5804 5800 5796 5792 5789 5786 5784 5783 5783 5783 5782 5782 5782 5783 5786 5791 5796 5802 5808 5813 5818 5822 5828 5836 5842 5847 5854 5859 5864 5872 5876 5860 5878 5881 5880 5882 5886 5893
5824 5820 5814 5808 5802 5798 5794 5789 5784 5781 5778 5775 5774 5774 5773 5773 5773 5774 5774 5777 5781 5786 5792 5799 5806 5812 5816 5821 5830 5836 5842 5848 5854 5862 5868 5869 5871 5875 5878 5879 5879 5881 5888
5818 5812 5806 5801 5796 5791 5787 5782 5778 5773 5769 5767 5765 5764 5763 5763 5763 5764 5766 5767 5772 5777 5781 5789 5797 5804 5810 5815 5822 5829 5837 5843 5850 5856 5862 5866 5868 5873 5876 5877 5880 5880 5881
5812 5806 5800 5794 5788 5783 5779 5774 5769 5764 5760 5755 5753 5751 5751 5751 5752 5755 5757 5759 5763 5768 5773 5779 5787 5795 5802 5808 5815 5822 5830 5837 5845 5851 5857 5863 5866 5871 5873 5874 5877 5879 5881
5806 5800 5794 5787 5781 5776 5770 5764 5759 5755 5750 5746 5743 5740 5738 5740 5743 5745 5747 5751 5754 5759 5765 5771 5778 5786 5793 5801 5808 5815 5823 5831 5839 5846 5851 5856 5861 5866 5871 5873 5875 5877 5879
5802 5795 5788 5780 5773 5767 5761 5754 5749 5743 5739 5736 5731 5729 5727 5728 5731 5734 5737 5742 5746 5751 5756 5762 5769 5777 5785 5793 5801 5808 5816 5823 5833 5840 5846 5854 5859 5863 5869 5870 5872 5872 5877
5797 5790 5782 5773 5766 5760 5753 5745 5738 5733 5729 5725 5722 5718 5716 5716 5717 5721 5725 5730 5736 5742 5748 5754 5760 5769 5778 5787 5795 5802 5810 5819 5829 5834 5842 5850 5854 5860 5864 5867 5870 5872 5876
5791 5784 5775 5767 5760 5753 5745 5736 5730 5725 5720 5715 5710 5706 5703 5704 5706 5709 5712 5716 5723 5731 5739 5746 5753 5761 5771 5780 5789 5796 5805 5814 5824 5832 5839 5845 5850 5856 5860 5863 5868 5870 5873
5784 5778 5770 5763 5755 5746 5737 5730 5723 5717 5710 5705 5699 5695 5691 5691 5695 5698 5702 5706 5713 5720 5729 5738 5746 5754 5764 5774 5783 5791 5801 5810 5820 5830 5836 5841 5844 5851 5856 5860 5864 5866 5870
5781 5774 5767 5758 5748 5739 5731 5723 5716 5709 5702 5696 5692 5689 5686 5686 5688 5690 5692 5697 5705 5712 5719 5731 5739 5747 5757 5767 5778 5785 5795 5806 5815 5825 5830 5839 5841 5848 5852 5856 5861 5863 5866
5779 5772 5763 5753 5743 5735 5727 5719 5709 5702 5696 5692 5688 5686 5683 5682 5683 5684 5686 5691 5699 5705 5713 5724 5732 5740 5752 5763 5773 5780 5790 5803 5813 5821 5829 5834 5840 5844 5849 5853 5856 5859 5862
5776 5768 5759 5749 5740 5732 5723 5714 5705 5697 5693 5690 5687 5683 5679 5678 5679 5680 5683 5688 5695 5702 5710 5719 5728 5737 5747 5757 5766 5776 5786 5799 5811 5820 5829 5834 5838 5842 5847 5850 5853 5855 5859
5773 5765 5755 5746 5738 5731 5721 5713 5704 5696 5692 5690 5686 5683 5680 5679 5679 5680 5683 5687 5692 5700 5708 5717 5725 5735 5744 5754 5762 5772 5784 5797 5809 5819 5825 5832 5835 5840 5845 5847 5849 5853 5857
5771 5763 5752 5744 5737 5730 5722 5713 5705 5698 5694 5690 5686 5684 5682 5682 5682 5683 5686 5689 5695 5701 5709 5716 5725 5733 5741 5751 5759 5771 5784 5796 5807 5816 5822 5828 5834 5838 5842 5845 5849 5853 5856
5769 5761 5750 5744 5737 5731 5723 5715 5707 5701 5696 5691 5688 5685 5684 5684 5685 5687 5689 5692 5697 5703 5710 5716 5724 5732 5739 5747 5758 5770 5782 5794 5806 5811 5816 5825 5832 5837 5840 5844 5847 5850 5853
5768 5760 5750 5744 5738 5732 5725 5718 5710 5704 5698 5694 5690 5687 5685 5685 5686 5687 5690 5694 5699 5704 5710 5716 5723 5730 5737 5745 5756 5768 5780 5792 5802 5810 5818 5825 5830 5835 5839 5842 5846 5848 5851
5768 5759 5751 5746 5739 5733 5727 5720 5714 5708 5703 5699 5694 5690 5688 5686 5687 5688 5691 5694 5699 5704 5710 5716 5723 5730 5737 5747 5757 5768 5779 5792 5802 5809 5816 5822 5829 5834 5839 5842 5846 5849 5851
5767 5759 5752 5748 5742 5735 5729 5723 5717 5712 5706 5702 5698 5693 5691 5690 5689 5690 5692 5695 5699 5705 5711 5717 5725 5731 5740 5748 5759 5768 5781 5792 5801 5807 5814 5819 5824 5829 5836 5839 5844 5848 5850
5766 5760 5753 5750 5744 5738 5733 5727 5721 5717 5713 5709 5705 5701 5697 5694 5695 5696 5697 5700 5702 5707 5713 5720 5728 5735 5743 5752 5762 5772 5782 5792 5802 5806 5813 5819 5825 5830 5834 5838 5843 5846 5848
5766 5760 5755 5751 5747 5741 5736 5732 5726 5721 5718 5716 5712 5710 5707 5705 5705 5704 5705 5706 5706 5711 5717 5724 5731 5741 5750 5758 5766 5777 5786 5793 5800 5806 5813 5819 5825 5830 5834 5839 5842 5845 5847
5766 5761 5756 5753 5749 5744 5740 5736 5731 5728 5725 5724 5722 5719 5716 5715 5715 5714 5714 5715 5715 5720 5724 5731 5736 5747 5757 5765 5772 5780 5785 5794 5800 5808 5815 5821 5826 5830 5834 5837 5841 5842 5845
5766 5762 5758 5755 5752 5748 5745 5740 5737 5733 5732 5730 5728 5727 5726 5724 5723 5722 5722 5724 5725 5728 5731 5734 5728 5748 5753 5769 5776 5783 5788 5794 5800 5808 5816 5820 5824 5828 5832 5835 5838 5841 5845
5767 5763 5759 5757 5755 5752 5750 5746 5743 5739 5737 5736 5736 5734 5733 5731 5731 5729 5730 5732 5732 5735 5739 5744 5749 5757 5764 5770 5776 5783 5789 5795 5802 5810 5815 5820 5825 5828 5830 5833 5837 5840 5845
Wind_Speed
38 40 42 42 42 40 40 35 33 32 30 28 30 32 34 36 36 36 37 37 37 37 41 41 43 44 43 42 41 39 36 32 33 27 25 27 27 29 25 25 25 25 23
39 41 41 42 43 41 39 35 35 35 34 33 32 33 36 39 42 40 37 37 36 33 33 37 36 39 44 43 40 39 38 24 37 30 26 27 29 31 34 30 26 26 26
39 43 44 45 43 42 40 37 38 38 37 37 37 36 36 38 39 41 42 41 41 39 35 33 34 36 39 44 42 40 42 40 38 33 24 24 32 34 32 33 31 35 32
41 43 43 44 44 44 42 40 41 41 39 40 40 38 37 35 35 36 38 41 43 44 43 38 35 35 37 40 43 42 43 41 38 36 32 22 26 30 35 33 36 39 33
43 42 43 45 46 44 43 43 42 41 43 43 43 41 40 38 37 34 34 36 38 40 43 46 39 37 37 39 42 44 43 41 38 31 40 29 35 31 26 32 27 36 30
41 42 44 45 45 43 43 43 43 44 42 41 42 44 44 43 41 38 35 34 38 38 39 41 45 43 40 38 42 45 44 42 39 40 43 33 35 33 23 26 26 31 36
40 43 45 46 44 42 43 45 43 40 41 45 45 43 41 38 40 41 39 37 36 37 34 39 44 46 45 40 42 46 46 46 38 36 37 35 28 33 27 27 27 29 30
42 44 45 45 43 45 46 44 40 41 45 44 44 44 42 37 35 39 39 37 35 37 37 35 42 46 47 44 40 47 48 48 45 38 48 30 22 25 23 23 29 29 26
42 43 43 43 46 46 45 45 46 48 45 42 41 40 40 41 39 40 39 38 37 37 36 38 40 47 49 46 41 44 49 50 46 36 39 41 33 27 27 26 35 35 28
41 41 43 45 46 46 48 49 47 43 37 36 39 41 41 38 39 42 44 44 42 41 39 37 40 45 52 51 47 42 50 50 49 44 35 30 25 28 27 26 20 19 21
40 44 45 45 46 49 47 41 36 34 38 41 41 41 42 40 35 34 36 40 40 43 41 40 39 44 50 53 46 43 49 50 50 45 35 25 30 26 30 27 23 20 18
43 44 43 46 46 44 38 33 36 38 39 34 30 27 28 28 27 29 33 36 37 40 41 40 36 41 49 52 48 43 48 50 50 42 32 25 24 26 29 27 27 21 19
42 42 44 44 43 35 34 37 37 35 30 25 19 16 15 18 21 20 24 30 35 34 39 39 34 40 49 50 49 41 49 51 51 48 37 37 29 25 21 25 25 25 21
39 40 42 42 35 34 36 36 34 29 24 19 15 14 13 13 16 18 20 25 29 30 36 36 34 43 46 47 45 41 49 51 50 47 45 36 31 30 26 24 24 22 23
38 41 41 36 33 35 34 33 30 27 19 16 15 13 8 5 8 11 16 22 26 30 33 34 32 39 43 46 42 42 49 51 50 44 39 39 25 31 26 25 20 21 18
38 39 39 32 31 32 33 31 27 21 13 15 16 11 6 3 4 8 11 17 24 30 33 31 35 35 36 42 38 43 48 49 54 41 33 32 22 24 24 21 23 22 20
37 38 35 30 31 31 31 27 23 16 11 12 12 8 6 6 8 11 14 17 20 25 29 29 32 33 33 39 37 43 45 48 54 37 29 24 23 23 22 16 24 19 19
35 38 32 28 30 28 29 26 21 15 13 10 8 6 5 5 6 8 13 15 19 23 26 28 29 28 31 33 39 42 45 46 54 42 32 27 22 20 22 23 22 28 22
34 36 29 27 29 25 26 27 22 17 16 18 16 10 4 5 5 8 11 14 18 22 24 25 28 28 29 38 44 46 46 51 52 39 33 30 26 24 17 24 25 27 22
32 33 25 25 27 22 22 21 19 20 17 15 16 11 10 9 5 8 11 14 16 18 22 23 25 29 37 43 46 47 46 51 46 36 35 27 32 28 18 14 19 17 17
30 31 22 23 26 20 20 20 20 22 23 18 22 23 16 9 13 9 13 16 15 19 22 24 29 35 42 45 46 48 47 45 46 30 31 24 20 22 23 7 13 20 23
27 28 19 20 23 19 17 19 20 20 26 24 21 31 29 22 24 14 14 19 20 22 26 32 35 40 43 44 44 48 47 47 31 31 26 22 19 22 22 13 15 12 7
24 25 16 18 21 18 15 19 17 17 18 19 21 27 29 26 24 22 22 17 22 28 35 40 39 38 35 40 44 45 45 28 32 34 31 25 22 20 19 14 16 18 17
22 23 14 16 19 17 13 11 20 27 22 23 25 28 26 26 24 24 25 23 30 34 33 38 40 35 30 33 37 36 31 29 33 41 33 29 21 21 21 19 20 17 16
19 19 13 13 16 17 16 23 17 16 19 10 17 17 24 23 21 22 21 22 26 30 28 34 29 35 33 30 32 33 32 22 25 26 22 23 20 19 25 20 20 17 15
15 17 12 9 12 14 13 17 18 20 19 17 15 12 16 19 24 21 20 20 22 26 28 32 36 34 31 33 31 32 28 12 17 14 18 18 19 19 24 23 21 18 15
Wind_Direction
325 326 325 322 315 311 309 305 298 292 283 274 270 269 273 272 269 258 254 252 250 243 238 238 238 236 237 237 237 233 230 230 226 227 235 231 228 231 229 227 228 221 218
324 323 319 315 310 310 306 301 294 290 285 280 277 271 267 269 269 262 248 245 239 240 235 236 234 233 231 232 231 229 223 216 228 224 233 233 231 241 233 230 226 220 224
321 321 317 313 313 309 303 297 296 294 291 289 285 280 276 276 269 261 254 244 239 232 230 230 230 230 228 227 226 225 220 214 219 219 222 233 231 243 244 243 222 214 228
321 316 312 315 309 306 302 298 299 296 291 288 286 282 281 279 264 261 255 249 242 237 232 230 226 224 225 224 221 221 220 219 220 216 218 220 204 235 245 236 240 226 219
318 314 317 314 311 304 302 302 300 297 294 292 289 284 282 279 265 256 255 251 245 241 236 230 224 222 226 222 219 217 217 215 212 204 218 209 209 222 231 252 242 224 210
316 318 317 311 308 304 306 304 299 297 295 290 285 281 277 273 263 252 254 256 246 241 236 232 222 223 224 224 216 213 214 211 209 209 219 216 217 229 245 249 247 228 208
319 318 313 311 309 311 308 305 303 299 298 294 289 285 281 270 257 250 252 254 249 240 236 230 223 218 220 221 217 210 209 209 206 203 219 215 219 219 223 224 234 245 222
320 317 313 310 314 313 311 307 304 299 298 293 290 287 284 274 255 249 248 250 246 239 235 232 225 216 214 217 216 211 206 208 199 206 211 208 210 210 219 245 232 227 237
319 314 312 317 318 316 312 309 306 304 301 296 292 289 283 276 264 251 249 248 243 234 233 228 223 216 209 212 212 212 205 205 200 203 209 213 215 218 221 236 229 231 237
317 316 319 322 319 316 313 310 308 304 301 297 293 287 280 274 266 256 249 247 243 238 230 226 222 218 208 212 215 214 208 204 203 208 194 203 216 216 219 227 240 230 231
323 324 326 323 319 315 314 313 309 305 302 300 295 286 277 268 261 253 248 242 235 230 226 223 224 216 210 208 212 213 209 203 201 208 207 206 208 217 223 222 216 224 232
329 328 325 322 318 318 318 316 310 306 307 302 299 293 278 261 253 252 244 234 230 226 223 216 219 215 208 207 210 214 207 203 200 198 189 197 187 201 207 217 223 228 233
331 328 324 323 323 326 321 316 315 316 311 314 311 303 284 261 251 254 242 222 223 221 214 210 215 209 205 206 209 212 204 203 199 194 198 204 185 193 205 215 215 218 225
332 329 327 329 332 329 327 326 324 322 323 317 309 310 301 264 248 246 228 214 213 214 202 204 207 203 200 202 205 207 202 201 197 194 201 212 217 228 225 231 232 221 225
332 334 333 336 335 336 335 336 332 336 333 335 328 329 319 278 245 219 205 204 206 198 193 193 194 197 198 198 204 203 201 198 195 186 194 207 215 220 225 228 231 221 220
336 337 339 340 340 345 343 341 344 345 342 339 341 352 32 74 163 166 175 183 193 195 192 190 194 194 197 197 204 201 197 193 196 196 189 197 193 219 229 227 221 199 190
339 340 345 343 348 351 351 354 359 9 4 347 347 5 54 94 109 135 151 164 169 175 185 185 188 192 195 198 202 196 190 189 195 187 181 189 200 213 220 229 205 207 203
342 343 347 348 352 354 0 6 4 13 19 11 359 16 70 103 119 121 149 162 171 173 179 183 186 192 196 196 190 182 182 186 187 190 174 174 187 214 231 227 227 223 209
343 344 348 352 352 355 358 6 13 26 29 31 37 46 64 96 164 160 158 166 175 177 179 183 186 186 187 179 175 171 176 179 191 192 180 180 179 200 203 227 221 201 207
344 346 349 359 354 358 3 7 22 24 20 21 29 44 70 93 135 149 151 167 172 177 181 180 180 177 170 168 165 168 172 180 187 191 186 184 180 193 173 162 189 189 208
346 348 350 6 1 6 7 20 34 31 51 64 57 53 51 58 81 107 132 148 159 173 174 171 165 163 161 160 165 168 169 177 184 190 182 181 173 174 176 165 153 184 207
347 349 352 12 5 15 28 36 50 62 57 63 68 66 66 93 85 115 105 134 138 150 153 149 152 152 155 161 164 165 166 173 168 166 163 175 167 170 181 154 164 172 193
350 349 354 16 10 20 46 51 48 49 57 67 65 73 73 87 79 98 113 123 140 151 146 146 141 146 156 165 166 168 174 168 163 175 156 150 151 172 181 182 180 167 164
353 348 357 25 17 30 50 62 64 72 75 73 67 76 88 84 88 99 109 112 128 131 143 144 143 148 154 170 167 166 166 155 159 148 158 165 175 176 188 179 178 178 186
357 350 360 33 28 40 64 93 74 53 76 92 67 84 78 77 95 100 104 115 134 145 137 143 157 146 150 156 165 173 160 145 156 154 169 186 184 195 206 197 181 187 189
2 3 2 38 36 45 66 78 68 67 71 87 75 57 73 83 78 81 105 121 135 141 141 144 148 150 154 162 168 187 158 126 161 168 182 202 175 186 200 188 182 180 188